Hourly Data Report for October 24, 2013

All times are specified in Local Standard Time (LST). Add 1 hour to adjust for Daylight Saving Time where and when it is observed.

ST LEONARD CS
NEW BRUNSWICK

47°09'28.050" N
67°49'55.014" W
245.00 m
810I001
71019
WIY

Download Data

Hourly Data (October 2013)
Hourly Data Report for October 24, 2013
Temp Definition
°C
Dew Point Temp Definition
°C
Rel Hum Definition
%
Wind Dir Definition
10's deg

Wind Spd Definition
km/h
Visibility Definition
km
Stn Press Definition
kPa
Hmdx Definition


Wind Chill Definition


Weather Definition


TIME
00:00 -2.0 -2.5 96 26 2   97.10   -3 LegendNANA
01:00 -0.7 -1.6 94 18 2   97.12   -1 LegendNANA
02:00 0.3 -1.1 90   0   97.03     LegendNANA
03:00 -0.6 -1.3 95   0   96.96     LegendNANA
04:00 -0.3 -1.0 95   0   96.94     LegendNANA
05:00 0.2 -1.2 90 23 6   96.94     LegendNANA
06:00 -0.5 -1.6 92 22 9   96.95   -4 LegendNANA
07:00 -1.0 -2.8 88 23 13   96.97   -5 LegendNANA
08:00 -0.6 -3.0 84 23 11   97.00   -4 LegendNANA
09:00 0.7 -2.8 77 23 15   97.04     LegendNANA
10:00 1.7 -3.1 70 23 20   97.02     LegendNANA
11:00 2.5 -3.3 66 24 20   97.01     LegendNANA
12:00 2.0 -5.3 58 26 24   97.01     LegendNANA
13:00 1.9 -5.1 60 24 22   96.95     LegendNANA
14:00 2.4 -4.7 59 24 22   96.91     LegendNANA
15:00 3.6 -4.7 55 24 22   96.89     LegendNANA
16:00 3.5 -4.6 55 23 20   96.91     LegendNANA
17:00 2.9 -3.9 61 24 17   96.95     LegendNANA
18:00 2.8 -3.0 66 26 20   97.00     LegendNANA
19:00 1.5 -0.5 87 25 20   97.05     LegendNANA
20:00 1.1 -0.2 91 23 15   97.07     LegendNANA
21:00 2.1 -0.7 82 24 13   97.08     LegendNANA
22:00 2.3 -0.7 81 25 19   97.11     LegendNANA
23:00 2.6 -0.6 79 25 20   97.14     LegendNANA

Notes on Data Quality.

Legend

  • E = Estimated
  • M = Missing
  • NA = Not Available
  • ‡ = Partner data that is not subject to review by the National Climate Archives
Date modified: